Simultaneous Nadir Overpasses (SNOs) Predictions

Prediction of SNOs between FY3D and NOAA-19 Satellite Orbit:

Table of predicted SNOs for the next 14.0 days since TLE Epoch: 3/18/2023
Index Date (FY3D) Time (FY3D) Lat,Lon (FY3D) SZA (FY3D ) Date (NOAA-19) Time (NOAA-19) Lat,Lon (NOAA-19) SZA (NOAA-19 ) Distance(km) Time Diff (sec)
1 03/19/2023 23:08:55 76.79,-178.11 77.41 03/19/2023 23:07:41 76.78,-177.95 77.42 4.02 74
2 03/19/2023 23:59:39 -76.76, -10.68 102.64 03/19/2023 23:58:39 -76.75, -10.81 102.63 3.34 60
3 03/20/2023 00:50:26 76.76, 156.61 77.36 03/20/2023 00:49:40 76.80, 156.61 77.40 3.56 46
4 03/20/2023 01:41:11 -76.78, -36.14 102.64 03/20/2023 01:40:38 -76.77, -36.25 102.64 2.99 33
5 03/20/2023 02:31:58 76.78, 131.14 77.35 03/20/2023 02:31:39 76.81, 131.17 77.38 2.76 19
6 03/20/2023 03:22:43 -76.80, -61.61 102.65 03/20/2023 03:22:37 -76.78, -61.68 102.66 2.97 6
7 03/20/2023 04:13:30 76.80, 105.68 77.35 03/20/2023 04:13:38 76.82, 105.73 77.36 2.22 8
8 03/20/2023 05:04:15 -76.82, -87.07 102.65 03/20/2023 05:04:36 -76.79, -87.12 102.68 3.30 21
9 03/20/2023 05:55:02 76.83, 80.21 77.34 03/20/2023 05:55:37 76.83, 80.29 77.34 2.14 35
10 03/20/2023 06:45:47 -76.84,-112.54 102.66 03/20/2023 06:46:35 -76.81,-112.56 102.70 3.89 48
11 03/20/2023 07:36:34 76.85, 54.75 77.34 03/20/2023 07:37:36 76.85, 54.85 77.32 2.57 62
12 03/20/2023 08:27:19 -76.86,-138.00 102.66 03/20/2023 08:28:33 -76.86,-137.82 102.68 4.65 74



Historial Predications of SNOs between FY3D and NOAA-19
